COSMOS 1275 DEB

Satellite information

Favourite Embed

Satellite Type and Status

DEBRISIN ORBIT

Key statistics

Satellite COSMOS 1275 DEB at a glance.

Uptime

16212

Days in orbit

Revolutions

≈ 13.9

Per day

Orbit

LEO

Low Earth Orbit

Inclination

82.8

Latest

Satellite identification and parameters

Extended collection of information and parameters for COSMOS 1275 DEB.

Object identification

Identified? True

Debris? True

Object name: COSMOS 1275 DEB

International designator: 1981-053TS

Object number (NORAD): 42202

Object ID (CCSDS): 42202

Country: COMMONWEALTH OF INDEPENDENT STATES (CIS)

Current information (Y/N): Y

RCS size: SMALL

Orbital parameters

Period: 103.774 minutes

Inclination: 82.8326 deg

SMA: 7315.064 km

Apoapsis: 973.824 km

Periapsis: 900.035 km

RAAN: 139.6618 deg

Eccentricy: 0.00504363

Argument of periapsis: 238.9046 deg

Mean anomaly: 300.3531 deg

Mean motion: 13.87635962 rev/day

Mean motion (dot): 0.00000959 rev/day2

B* drag term: 0.00079033258 1/REarth

Two-line elements (TLE)

Creation date: Oct. 22, 2025, 5:40 p.m.

Reference frame: TEME

Reference center: EARTH

Epoch: Oct. 22, 2025, 7:41 a.m. UTC

TLE line 0: 0 COSMOS 1275 DEB

TLE line 1: 1 42202U 81053TS 25295.32044666 .00000959 00000-0 79033-3 0 9999

TLE line 2: 2 42202 82.8326 139.6618 0050436 238.9046 300.3531 13.87635962602323

Live tracking on map

Real-time ground track for satellite COSMOS 1275 DEB.

In-orbit conjunctions

A list of the most updated potential collisions computed for object COSMOS 1275 DEB.

Target Orbit TCA Probability of collision Miss distance Type
FENGYUN 1C DEB SSO 2024-11-09 13:52:18 0.0002729628 687.0 (m) DEBRIS
CZ-2D DEB SSO 2024-09-13 23:58:48 0.0001348016 162.0 (m) DEBRIS

Associated space launch

Navigation satellite providing location information for the Tsiklon-B navigation system

COSMOS 1275 DEB was lifted into orbit during the mission ‘Kosmos-3M | Parus 27’, on board a Kosmos-3M space rocket.

The launch took place on June 4, 1981, 3:41 p.m. from 132/2.

For more information about the launch, click the button.

Launch to space Kosmos-3M | Parus 27
Kosmos-3M | Parus 27

Agency: N/A

Status: Launch Successful

Launch date: June 4, 1981, 3:41 p.m. UTC

Rocket: Kosmos-3M

Launch pad: 132/2

Location: Plesetsk Cosmodrome, Russian Federation

...

Latest news about this satellite

There are no fresh news available about this satellite. Check back as we update our databases every day.


Newsletter sign-up

Weekly statistics, charts and insights to help you stay on top of the space industry.